Weather History for Key West NAF, FL

Change the Weather History Date:

Saturday, March 2, 2013

  Actual Average Record
Temperature  
Mean Temperature 64 °F -  
Max Temperature 69 °F 77 °F 85 °F (1991)
Min Temperature 57 °F 66 °F 53 °F (1968)
Degree Days  
Heating Degree Days 1    
Growing Degree Days 14 (Base 50)    
Moisture  
Dew Point 50 °F    
Average Humidity 61    
Maximum Humidity 70    
Minimum Humidity 40    
Precipitation  
Precipitation 0.00 in - - ()
Sea Level Pressure  
Sea Level Pressure 30.02 in    
Wind  
Wind Speed 14 mph (NNW)    
Max Wind Speed 24 mph    
Max Gust Speed 31 mph    
Visibility 10 miles    
Events Rain    
Averages and records for this station are not official NWS values.
T = Trace of Precipitation, MM = Missing Value Source: NWS Daily Summary

Daily Weather History Graph

Daily Weather History Graph

Search for Another Location

Airport:

Trip Planner

Search our weather history database for the weather conditions in past years. The results will help you decide how hot, cold, wet, or windy it might be!

Date:

Astronomy

Mar. 02, 2013 Rise Set
Actual Time 6:48 AM EST 6:29 PM EST
Civil Twilight 6:25 AM EST 6:52 PM EST
Nautical Twilight 5:58 AM EST 7:19 PM EST
Astronomical Twilight 5:32 AM EST 7:45 PM EST
Moon 11:27 PM EST (3/2) 9:52 AM EST (3/2)
Length of Visible Light 12h 27m
Length of Day
11h 41m
Waning Gibbous, 74% of the Moon is Illuminated
Mar 2
Waning Gibbous
Mar 4
Last Quarter
Mar 11
New
Mar 19
First Quarter
Mar 27
Full

Hourly Weather History & Observations

Time (EST) Temp. Dew Point Humidity Pressure Visibility Wind Dir Wind Speed Gust Speed Precip Events Conditions
12:53 AM 64.0 °F 54.0 °F 70% 29.99 in 10.0 mi North 13.8 mph - 0.00 in   Overcast
1:53 AM 64.0 °F 53.1 °F 67% 29.98 in 10.0 mi North 11.5 mph - N/A   Overcast
2:53 AM 64.0 °F 54.0 °F 70% 29.98 in 10.0 mi North 15.0 mph - N/A   Overcast
3:53 AM 64.0 °F 54.0 °F 70% 29.98 in 10.0 mi North 16.1 mph 24.2 mph N/A   Overcast
4:53 AM 63.0 °F 52.0 °F 67% 29.99 in 10.0 mi North 16.1 mph 25.3 mph N/A   Overcast
5:53 AM 63.0 °F 51.1 °F 65% 29.99 in 10.0 mi North 18.4 mph 26.5 mph N/A   Overcast
5:57 AM 62.6 °F 51.8 °F 68% 30.00 in 10.0 mi NNW 17.3 mph 25.3 mph N/A   Overcast
6:53 AM 64.0 °F 50.0 °F 60% 30.00 in 10.0 mi NNW 21.9 mph 27.6 mph N/A   Overcast
7:53 AM 64.0 °F 39.0 °F 40% 30.02 in 10.0 mi NNW 17.3 mph 28.8 mph N/A   Overcast
8:53 AM 64.0 °F 50.0 °F 60% 30.03 in 10.0 mi NNW 16.1 mph - N/A   Overcast
9:53 AM 64.9 °F 48.9 °F 56% 30.04 in 10.0 mi NNW 12.7 mph - N/A   Overcast
10:53 AM 64.0 °F 45.0 °F 50% 30.04 in 10.0 mi North 11.5 mph - N/A   Overcast
11:53 AM 64.0 °F 52.0 °F 65% 30.04 in 10.0 mi NNE 9.2 mph - N/A   Overcast
12:53 PM 66.9 °F 52.0 °F 59% 30.03 in 10.0 mi North 10.4 mph - N/A   Overcast
1:53 PM 68.0 °F 51.1 °F 55% 30.01 in 10.0 mi NNW 8.1 mph - N/A   Mostly Cloudy
2:53 PM 69.1 °F 51.1 °F 53% 29.99 in 10.0 mi NW 11.5 mph - N/A   Mostly Cloudy
3:53 PM 64.9 °F 50.0 °F 58% 29.99 in 10.0 mi NNW 24.2 mph 31.1 mph N/A   Mostly Cloudy
4:53 PM 64.9 °F 48.0 °F 54% 30.01 in 10.0 mi NNW 17.3 mph 24.2 mph N/A   Mostly Cloudy
5:53 PM 62.1 °F 48.9 °F 62% 30.01 in 10.0 mi North 13.8 mph - N/A   Mostly Cloudy
6:53 PM 62.1 °F 46.0 °F 56% 30.02 in 10.0 mi North 13.8 mph - N/A   Mostly Cloudy
7:53 PM 61.0 °F 48.0 °F 62% 30.04 in 10.0 mi North 12.7 mph - N/A   Scattered Clouds
8:45 PM 60.8 °F 48.2 °F 63% 30.07 in 10.0 mi NNW 13.8 mph - 0.00 in Rain Light Rain
8:53 PM 61.0 °F 48.0 °F 62% 30.07 in 10.0 mi NNW 12.7 mph - 0.00 in   Mostly Cloudy
9:53 PM 60.1 °F 48.0 °F 64% 30.07 in 10.0 mi NW 4.6 mph - N/A   Overcast
10:53 PM 59.0 °F 48.9 °F 69% 30.05 in 10.0 mi Calm Calm - N/A   Partly Cloudy
11:53 PM 57.9 °F 46.9 °F 67% 30.04 in 10.0 mi Calm Calm - N/A   Scattered Clouds